Weather History for Detroit Lakes, MN

Change the Weather History Date:

Wednesday, February 20, 2013

  Actual Average Record
Temperature  
Mean Temperature -2 °F -  
Max Temperature 14 °F 25 °F 46 °F (1985)
Min Temperature -18 °F 3 °F -32 °F (1956)
Degree Days  
Heating Degree Days 67    
Moisture  
Dew Point -7 °F    
Average Humidity 70    
Maximum Humidity 92    
Minimum Humidity 57    
Precipitation  
Precipitation 0.00 in - - ()
Sea Level Pressure  
Sea Level Pressure 30.38 in    
Wind  
Wind Speed 4 mph (SE)    
Max Wind Speed 12 mph    
Max Gust Speed -    
Visibility 10 miles    
Events      
Averages and records for this station are not official NWS values.
T = Trace of Precipitation, MM = Missing Value Source: NWS Daily Summary

Daily Weather History Graph

Daily Weather History Graph

Search for Another Location

Airport:

Trip Planner

Search our weather history database for the weather conditions in past years. The results will help you decide how hot, cold, wet, or windy it might be!

Date:

Astronomy

Feb. 20, 2013 Rise Set
Actual Time 7:18 AM CST 5:56 PM CST
Civil Twilight 6:47 AM CST 6:27 PM CST
Nautical Twilight 6:12 AM CST 7:02 PM CST
Astronomical Twilight 5:37 AM CST 7:37 PM CST
Moon 1:07 PM CST (2/20) 3:51 AM CST (2/20)
Length of Visible Light 11h 39m
Length of Day
10h 37m
Waxing Gibbous, 76% of the Moon is Illuminated
Feb 20
Waxing Gibbous
Feb 25
Full
Mar 4
Last Quarter
Mar 11
New
Mar 19
First Quarter

Hourly Weather History & Observations

Time (CST) Temp. Windchill Dew Point Humidity Pressure Visibility Wind Dir Wind Speed Gust Speed Precip Events Conditions
12:16 AM -16.6 °F -32.9 °F -22.0 °F 76% 30.40 in 10.0 mi NNW 6.9 mph - N/A   Clear
12:35 AM -16.6 °F - -22.0 °F 76% 30.40 in 10.0 mi Calm Calm - N/A   Clear
12:55 AM -16.6 °F -29.3 °F -22.0 °F 76% 30.40 in 10.0 mi NNW 4.6 mph - N/A   Clear
1:16 AM -16.6 °F -26.8 °F -20.2 °F 84% 30.40 in 10.0 mi NW 3.5 mph - N/A   Clear
1:35 AM -14.8 °F -29.1 °F -20.2 °F 77% 30.41 in 5.0 mi NW 5.8 mph - N/A   Haze
1:55 AM -16.6 °F -29.3 °F -22.0 °F 76% 30.41 in 5.0 mi NNW 4.6 mph - N/A   Haze
2:16 AM -18.4 °F - -22.0 °F 84% 30.41 in 7.0 mi Calm Calm - N/A   Clear
2:35 AM -16.6 °F - -22.0 °F 76% 30.41 in 10.0 mi Calm Calm - N/A   Clear
2:55 AM -18.4 °F -31.4 °F -22.0 °F 84% 30.41 in 10.0 mi NNW 4.6 mph - N/A   Clear
3:16 AM -18.4 °F - -23.8 °F 76% 30.40 in 10.0 mi Calm Calm - N/A   Clear
3:35 AM -18.4 °F - -23.8 °F 76% 30.40 in 10.0 mi Calm Calm - N/A   Clear
3:55 AM -18.4 °F - -23.8 °F 76% 30.39 in 10.0 mi Calm Calm - N/A   Clear
4:16 AM -18.4 °F - -23.8 °F 76% 30.39 in 10.0 mi Calm Calm - N/A   Clear
4:35 AM -18.4 °F - -23.8 °F 76% 30.40 in 10.0 mi Calm Calm - N/A   Clear
4:55 AM -16.6 °F - -22.0 °F 76% 30.41 in 10.0 mi Calm Calm - N/A   Clear
5:16 AM -18.4 °F - -23.8 °F 76% 30.41 in 10.0 mi Calm Calm - N/A   Clear
5:35 AM -16.6 °F - -22.0 °F 76% 30.41 in 10.0 mi Calm Calm - N/A   Clear
5:55 AM -16.6 °F - -22.0 °F 76% 30.41 in 10.0 mi Calm Calm - N/A   Clear
6:16 AM -18.4 °F -28.9 °F -23.8 °F 76% 30.40 in 10.0 mi East 3.5 mph - N/A   Clear
6:55 AM -18.4 °F - -25.6 °F 70% 30.40 in 7.0 mi Calm Calm - N/A   Clear
7:16 AM -16.6 °F - -22.0 °F 76% 30.41 in 10.0 mi Calm Calm - N/A   Clear
7:35 AM -13.0 °F -25.1 °F -16.6 °F 84% 30.40 in 10.0 mi East 4.6 mph - N/A   Clear
7:55 AM -9.4 °F - -14.8 °F 77% 30.41 in 10.0 mi Calm Calm - N/A   Clear
8:16 AM -13.0 °F - -16.6 °F 84% 30.40 in 10.0 mi Calm Calm - N/A   Clear
8:35 AM -9.4 °F - -14.8 °F 77% 30.41 in 10.0 mi Calm Calm - N/A   Clear
8:56 AM -9.4 °F - -13.0 °F 84% 30.40 in 10.0 mi Calm Calm - N/A   Clear
9:15 AM -7.6 °F - -9.4 °F 92% 30.40 in 10.0 mi Calm Calm - N/A   Clear
9:35 AM -4.0 °F -12.4 °F -7.6 °F 85% 30.40 in 10.0 mi East 3.5 mph - N/A   Clear
9:56 AM -2.2 °F -10.4 °F -5.8 °F 85% 30.40 in 10.0 mi SSW 3.5 mph - N/A   Clear
10:15 AM -0.4 °F - -4.0 °F 85% 30.39 in 10.0 mi Calm Calm - N/A   Clear
10:35 AM 1.4 °F - -4.0 °F 78% 30.39 in 10.0 mi Calm Calm - N/A   Clear
10:56 AM 3.2 °F -6.2 °F -4.0 °F 72% 30.40 in 10.0 mi South 4.6 mph - N/A   Clear
11:15 AM 6.8 °F -0.1 °F -4.0 °F 61% 30.40 in 10.0 mi SSE 3.5 mph - N/A   Clear
11:36 AM 8.6 °F -2.6 °F -0.4 °F 67% 30.40 in 10.0 mi SSE 6.9 mph - N/A   Clear
11:55 AM 8.6 °F -1.3 °F -0.4 °F 67% 30.40 in 10.0 mi SE 5.8 mph - N/A   Clear
12:16 PM 10.4 °F -0.4 °F -0.4 °F 62% 30.39 in 10.0 mi SSE 6.9 mph - N/A   Clear
12:35 PM 12.2 °F 2.9 °F 1.4 °F 62% 30.39 in 10.0 mi South 5.8 mph - N/A   Clear
12:56 PM 12.2 °F 2.9 °F 1.4 °F 62% 30.39 in 10.0 mi South 5.8 mph - N/A   Clear
1:15 PM 12.2 °F 1.7 °F 1.4 °F 62% 30.38 in 10.0 mi SSE 6.9 mph - N/A   Clear
1:35 PM 12.2 °F 2.9 °F 1.4 °F 62% 30.38 in 10.0 mi SSE 5.8 mph - N/A   Clear
2:15 PM 14.0 °F 2.0 °F 3.2 °F 62% 30.38 in 10.0 mi SSE 9.2 mph - N/A   Clear
2:35 PM 14.0 °F 2.9 °F 3.2 °F 62% 30.38 in 10.0 mi SE 8.1 mph - N/A   Clear
2:56 PM 14.0 °F 2.9 °F 3.2 °F 62% 30.38 in 10.0 mi SSE 8.1 mph - N/A   Clear
3:15 PM 14.0 °F 2.9 °F 3.2 °F 62% 30.37 in 10.0 mi SSE 8.1 mph - N/A   Clear
3:35 PM 14.0 °F 2.0 °F 3.2 °F 62% 30.37 in 10.0 mi SSE 9.2 mph - N/A   Clear
3:56 PM 14.0 °F 2.9 °F 3.2 °F 62% 30.36 in 10.0 mi SSE 8.1 mph - N/A   Clear
4:15 PM 14.0 °F 3.9 °F 3.2 °F 62% 30.37 in 10.0 mi SSE 6.9 mph - N/A   Clear
4:35 PM 14.0 °F 3.9 °F 3.2 °F 62% 30.37 in 10.0 mi SSE 6.9 mph - N/A   Clear
4:56 PM 14.0 °F 5.1 °F 3.2 °F 62% 30.36 in 10.0 mi South 5.8 mph - N/A   Clear
5:15 PM 14.0 °F 5.1 °F 3.2 °F 62% 30.36 in 10.0 mi SSE 5.8 mph - N/A   Clear
5:35 PM 14.0 °F 3.9 °F 3.2 °F 62% 30.35 in 10.0 mi SE 6.9 mph - N/A   Clear
5:56 PM 12.2 °F 1.7 °F 3.2 °F 67% 30.35 in 10.0 mi SE 6.9 mph - N/A   Clear
6:15 PM 14.0 °F 5.1 °F 3.2 °F 62% 30.35 in 10.0 mi ESE 5.8 mph - N/A   Clear
6:35 PM 14.0 °F 8.2 °F 3.2 °F 62% 30.35 in 10.0 mi SE 3.5 mph - N/A   Clear
6:56 PM 14.0 °F 5.1 °F 3.2 °F 62% 30.34 in 10.0 mi ESE 5.8 mph - N/A   Clear
7:15 PM 14.0 °F 2.9 °F 3.2 °F 62% 30.34 in 10.0 mi ESE 8.1 mph - N/A   Clear
7:36 PM 14.0 °F 6.5 °F 3.2 °F 62% 30.34 in 10.0 mi ESE 4.6 mph - N/A   Clear
7:56 PM 12.2 °F 6.1 °F 1.4 °F 62% 30.34 in 10.0 mi SE 3.5 mph - N/A   Clear
8:15 PM 10.4 °F 2.2 °F 1.4 °F 67% 30.34 in 10.0 mi SE 4.6 mph - N/A   Clear
8:36 PM 14.0 °F 3.9 °F 1.4 °F 57% 30.33 in 10.0 mi ESE 6.9 mph - N/A   Clear
8:56 PM 12.2 °F 4.3 °F 1.4 °F 62% 30.33 in 10.0 mi ESE 4.6 mph - N/A   Clear
9:15 PM 12.2 °F 2.9 °F 1.4 °F 62% 30.33 in 10.0 mi SE 5.8 mph - N/A   Clear
9:36 PM 10.4 °F 2.2 °F 1.4 °F 67% 30.32 in 10.0 mi ESE 4.6 mph - N/A   Clear
9:56 PM 12.2 °F 1.7 °F -0.4 °F 57% 30.32 in 10.0 mi SE 6.9 mph - N/A   Clear
10:15 PM 12.2 °F 2.9 °F -0.4 °F 57% 30.33 in 10.0 mi ESE 5.8 mph - N/A   Clear
10:36 PM 12.2 °F -0.2 °F -0.4 °F 57% 30.33 in 10.0 mi ESE 9.2 mph - N/A   Clear
10:56 PM 12.2 °F -1.8 °F -0.4 °F 57% 30.33 in 10.0 mi ESE 11.5 mph - N/A   Clear
11:15 PM 12.2 °F -0.2 °F -0.4 °F 57% 30.34 in 10.0 mi SE 9.2 mph - N/A   Clear
11:36 PM 10.4 °F -2.4 °F -0.4 °F 62% 30.34 in 10.0 mi SE 9.2 mph - N/A   Clear
11:55 PM 10.4 °F -2.4 °F -0.4 °F 62% 30.34 in 10.0 mi SE 9.2 mph - N/A   Clear